Temp
48 51 51 51 50 54 50 47 41 49 52 55 57 60 69 72 71 70 71 71 70 70 71 73 73 74 78 78 76 74 71 73 71 70 69 68 67 67 67 67 68 68 68 68
41 50 53 50 53 48 48 57 56 53 48 62 66 71 68 68 69 68 68 67 68 70 71 70 70 71 73 75 77 77 73 72 74 72 71 69 69 68 68 67 68 68 67 67
35 46 47 41 50 51 50 59 58 50 59 64 65 66 66 66 67 65 66 66 66 67 67 68 68 69 69 72 75 76 75 74 74 73 72 70 70 69 68 67 67 66 66 66
33 37 29 50 61 60 56 59 61 61 62 64 65 67 68 68 64 64 65 65 65 65 65 66 67 66 66 69 71 74 77 76 75 74 73 72 70 68 67 67 66 65 65 65
31 34 40 48 55 55 53 53 63 61 64 65 66 64 63 67 67 65 65 66 64 64 63 62 59 58 58 61 65 68 70 76 77 75 73 72 70 68 68 66 65 64 65 63
37 31 28 48 58 63 62 46 62 62 60 60 61 50 53 64 67 66 66 64 62 61 61 57 53 52 52 54 57 59 60 65 69 77 74 72 70 68 67 66 64 57 43 41
35 33 42 57 61 62 42 42 57 59 58 57 54 58 63 66 65 66 64 61 58 57 55 51 47 46 46 47 48 49 53 59 57 57 69 71 69 67 64 51 41 37 35 35
37 33 32 61 59 49 50 53 55 56 58 56 58 60 61 62 62 60 58 56 53 51 50 48 44 43 41 41 43 46 48 53 50 48 50 50 48 45 44 41 37 34 33 32
43 42 56 61 55 58 58 54 53 55 58 57 57 57 59 57 56 54 51 49 48 45 44 43 41 41 37 38 41 42 41 41 41 41 41 42 41 39 37 36 34 32 31 29
44 52 56 54 57 58 58 56 57 57 56 56 53 55 54 53 48 45 43 39 40 38 37 35 37 37 36 37 39 37 35 34 34 32 33 35 37 38 36 34 32 31 30 28
47 49 46 47 51 54 55 55 53 54 53 51 51 50 48 43 41 39 37 35 35 33 33 32 34 33 35 35 37 34 33 32 31 31 30 30 30 30 30 31 32 30 28 29
40 46 45 43 50 54 50 49 49 48 47 48 47 44 43 37 36 34 32 31 30 29 29 30 31 31 33 34 34 32 30 30 29 29 29 29 29 28 31 31 31 31 31 30
45 50 50 50 49 49 48 47 48 46 44 41 41 40 38 33 32 31 30 28 27 26 27 28 29 29 30 32 32 31 30 30 29 28 28 27 27 27 24 27 30 30 30 30
48 49 48 45 41 44 44 45 46 42 39 36 35 35 33 31 29 28 26 27 27 26 26 27 28 28 30 30 30 30 30 29 29 28 27 26 25 25 24 23 22 23 28 28
44 48 43 44 44 42 43 42 37 35 34 32 31 29 28 26 25 24 25 27 27 26 24 25 26 27 29 30 28 28 28 28 28 28 27 27 26 25 25 24 23 23 23 24
42 45 44 40 39 38 37 37 34 31 30 30 28 27 27 26 25 24 24 24 22 21 22 22 23 26 28 28 28 28 27 27 28 27 26 25 24 23 22 21 21 21 22 22
34 32 34 34 35 32 31 31 31 28 28 27 27 27 26 25 24 23 21 21 21 20 21 21 21 24 26 27 27 26 25 25 26 25 25 25 23 22 21 20 19 20 20 21
32 31 31 30 30 29 27 27 26 26 23 23 22 21 19 18 17 18 19 19 19 17 19 21 23 23 24 25 26 26 25 25 25 24 24 23 23 23 22 21 21 20 19 20
30 29 28 28 28 27 25 24 23 23 22 21 20 19 19 18 17 16 17 16 15 14 16 21 24 24 24 25 27 26 24 23 23 23 22 20 19 21 21 20 19 18 18 17
26 26 25 24 25 24 22 22 22 20 20 20 19 17 15 16 19 17 16 14 16 17 19 19 22 22 23 24 24 24 22 22 21 20 19 19 19 18 18 18 18 17 16 15
23 22 21 21 20 20 20 20 19 18 18 19 17 15 15 16 15 17 17 14 16 19 19 19 18 21 22 22 22 20 19 19 18 18 17 17 16 16 16 16 15 14 14 14
22 21 20 20 19 19 20 20 20 19 18 18 18 19 19 17 15 14 14 15 16 16 16 16 17 16 19 19 20 18 17 17 16 16 15 15 14 13 13 13 12 12 12 12
22 22 21 20 19 19 20 19 19 19 18 17 17 17 17 17 17 14 11 15 16 14 15 14 13 14 15 17 17 16 16 15 14 13 14 13 12 12 11 9 11 10 9 8
24 23 23 23 24 23 21 21 22 20 18 19 17 16 20 18 17 18 17 14 13 11 11 12 11 13 14 15 15 14 12 11 13 13 13 10 11 11 11 7 8 8 7 6
25 25 25 25 24 22 23 23 23 23 22 21 21 21 20 19 16 15 16 15 12 16 14 8 11 12 14 14 12 12 13 11 10 10 11 10 10 9 8 8 6 5 4 5
26 25 24 25 25 26 26 26 24 23 23 19 19 19 19 19 19 18 16 15 15 15 15 14 12 12 13 13 12 11 12 11 9 9 9 9 8 8 7 5 4 5 4 2
26 25 25 24 23 22 22 21 21 19 19 19 17 19 18 18 16 17 14 16 16 15 15 15 14 11 10 10 12 11 11 11 5 6 7 8 7 7 5 3 3 2 1 0
MSLP
1002.77 1001.74 1000.89 1000.59 1000.17 999.49 999.91 1000.91 1000.93 999.84 999.12 999.11 999.50 998.34 997.47 997.47 998.00 998.74 999.10 999.52 999.97 999.98 999.70 999.57 999.44 999.36 999.04 998.68 999.23 1000.14 1000.90 1001.51 1001.44 1002.23 1003.11 1003.66 1004.06 1004.25 1004.60 1005.19 1005.41 1005.83 1006.17 1006.43
1003.65 1002.31 1001.05 1000.15 999.80 1000.39 1000.02 998.85 998.72 999.21 999.41 999.14 999.46 997.87 997.87 998.33 998.80 999.33 1000.02 1000.79 1001.20 1001.06 1000.82 1000.75 1000.31 1000.02 999.69 999.30 998.53 998.73 999.61 1000.02 1000.38 1001.27 1001.82 1002.24 1002.67 1003.07 1003.63 1003.86 1004.19 1004.69 1004.85 1005.20
1004.60 1003.46 1001.82 1000.32 999.38 999.25 999.83 998.13 998.12 998.34 998.25 998.17 997.85 998.18 998.61 999.13 999.46 1000.22 1000.91 1001.40 1001.75 1001.99 1002.09 1002.04 1001.71 1001.14 1000.44 999.88 999.20 998.57 998.36 998.80 999.34 999.79 1000.32 1000.78 1001.41 1002.12 1002.30 1002.55 1003.17 1003.38 1003.78 1004.23
1005.76 1004.64 1002.15 999.87 998.66 998.06 998.13 998.05 998.17 997.99 998.09 998.40 998.66 999.07 999.49 999.96 1000.73 1001.38 1001.75 1002.12 1002.59 1002.90 1003.13 1003.04 1002.73 1002.45 1001.97 1000.91 999.93 998.91 998.29 997.80 998.04 998.52 998.84 999.29 1000.06 1000.59 1000.97 1001.39 1001.88 1002.43 1002.89 1003.36
1005.91 1004.21 1002.64 1000.42 999.04 998.58 998.27 998.38 998.21 998.32 998.86 999.01 999.56 1000.05 1000.66 1001.18 1001.80 1002.24 1002.56 1002.74 1003.17 1003.64 1003.96 1004.14 1004.37 1004.50 1003.89 1002.54 1001.22 1000.27 999.23 997.81 997.05 997.11 997.58 998.25 998.81 999.26 999.86 1000.74 1001.15 1001.54 1002.31 1002.97
1005.29 1004.34 1002.49 999.90 999.49 999.13 998.93 999.21 998.81 999.27 999.87 1000.21 1000.56 1001.29 1002.41 1002.57 1002.47 1002.88 1003.33 1003.66 1004.33 1004.64 1005.02 1005.35 1005.94 1005.92 1005.05 1003.88 1002.84 1001.91 1001.12 999.66 998.45 996.57 996.27 996.76 997.42 998.25 999.08 1000.05 1000.84 1001.50 1002.71 1003.39
1004.88 1003.98 1001.97 1000.22 999.47 999.78 1000.14 1001.78 1001.08 1001.19 1001.72 1001.97 1002.30 1002.65 1002.62 1002.54 1002.94 1003.09 1003.85 1004.86 1005.66 1005.88 1006.03 1006.62 1007.32 1007.11 1006.37 1005.54 1004.46 1003.90 1002.69 1001.08 999.90 998.66 996.56 995.83 996.58 997.34 998.38 999.85 1001.35 1002.73 1003.60 1004.48
1004.16 1003.30 1001.94 1000.46 1000.20 1000.74 1002.18 1002.82 1003.17 1003.49 1003.26 1003.30 1003.52 1003.68 1003.68 1003.86 1004.22 1004.85 1005.57 1006.40 1007.29 1007.54 1007.78 1008.15 1008.30 1007.98 1007.32 1006.75 1006.25 1004.97 1003.84 1002.52 1001.61 1000.63 999.70 998.39 997.91 998.59 999.74 1001.10 1002.75 1004.05 1005.11 1006.03
1002.83 1002.18 1001.36 1000.75 1001.38 1002.28 1002.93 1003.68 1004.53 1004.58 1004.54 1004.47 1004.91 1005.21 1005.12 1005.72 1006.23 1007.01 1007.95 1008.77 1009.25 1009.42 1009.35 1009.65 1009.58 1009.13 1008.47 1007.91 1006.86 1005.84 1004.82 1004.35 1003.75 1002.79 1001.85 1001.40 1000.26 1000.41 1001.01 1002.03 1003.38 1004.75 1005.71 1006.68
1002.98 1002.02 1001.92 1002.44 1002.89 1003.14 1003.93 1004.48 1005.26 1005.78 1005.73 1006.13 1006.63 1006.80 1007.18 1007.63 1008.80 1009.65 1010.58 1011.33 1011.50 1011.51 1011.29 1011.23 1010.96 1010.52 1010.03 1009.04 1007.88 1006.93 1005.97 1005.96 1005.65 1005.22 1004.39 1003.62 1003.04 1002.59 1002.68 1002.96 1004.21 1005.39 1006.25 1007.26
1003.07 1003.31 1004.10 1004.66 1004.46 1004.33 1005.06 1006.05 1006.71 1006.95 1007.54 1008.00 1008.31 1008.67 1009.23 1010.26 1011.22 1012.12 1012.71 1013.03 1013.06 1013.08 1012.82 1012.43 1012.05 1011.41 1010.57 1009.70 1008.59 1008.01 1006.90 1007.32 1007.31 1007.05 1006.80 1006.32 1005.78 1005.32 1004.50 1005.60 1005.63 1006.16 1007.08 1008.05
1004.43 1004.49 1004.86 1005.76 1005.84 1006.23 1006.92 1007.57 1008.05 1008.32 1008.92 1009.45 1009.83 1010.39 1011.18 1012.46 1013.40 1013.86 1014.25 1014.49 1014.42 1014.25 1013.80 1013.46 1013.03 1012.28 1011.29 1010.43 1009.62 1009.24 1007.94 1008.54 1008.51 1008.80 1008.57 1009.18 1008.18 1007.57 1008.29 1007.11 1007.55 1009.28 1009.23 1009.11
1006.10 1006.05 1006.02 1006.74 1007.63 1008.12 1008.27 1008.87 1009.10 1009.49 1010.44 1011.01 1011.67 1012.25 1012.97 1013.87 1014.66 1015.12 1015.41 1015.57 1015.49 1015.33 1014.94 1014.43 1013.85 1013.08 1012.42 1011.59 1010.87 1010.66 1009.32 1010.14 1009.67 1009.38 1010.22 1010.81 1011.44 1010.43 1009.52 1010.31 1009.76 1009.25 1014.00 1011.25
1007.48 1006.75 1006.66 1008.00 1008.88 1009.51 1009.74 1009.95 1010.24 1011.33 1012.30 1013.17 1013.69 1014.16 1014.66 1015.20 1015.78 1016.06 1016.26 1016.53 1016.57 1016.30 1015.77 1015.47 1014.82 1014.18 1013.90 1013.31 1012.26 1012.28 1010.22 1011.52 1011.57 1011.20 1010.49 1011.64 1012.86 1013.00 1012.92 1011.82 1012.23 1013.90 1012.75 1013.53
1009.05 1008.86 1009.48 1009.87 1010.22 1010.54 1010.87 1011.31 1012.11 1012.97 1013.86 1014.51 1015.23 1015.69 1016.15 1016.48 1016.89 1017.15 1017.41 1017.39 1017.44 1017.41 1017.15 1016.67 1016.02 1015.50 1015.16 1014.50 1013.86 1013.64 1012.40 1012.36 1013.12 1012.19 1012.82 1013.21 1013.51 1013.99 1014.10 1014.13 1014.05 1015.37 1015.91 1014.89
1010.78 1010.29 1010.60 1011.14 1011.53 1012.10 1012.61 1013.07 1013.68 1014.59 1015.32 1015.87 1016.49 1016.94 1017.37 1017.75 1018.10 1018.13 1018.58 1018.81 1018.54 1018.79 1018.64 1018.12 1017.52 1017.08 1016.44 1015.61 1015.27 1015.09 1014.27 1014.14 1014.50 1014.78 1014.87 1014.92 1014.32 1016.32 1016.08 1015.13 1016.51 1016.89 1016.82 1017.42
1012.47 1012.71 1012.99 1013.15 1013.37 1014.14 1014.76 1015.28 1015.68 1016.26 1016.77 1017.14 1017.57 1018.01 1018.41 1018.80 1019.25 1019.37 1019.80 1020.08 1020.10 1020.08 1019.92 1019.49 1019.19 1018.57 1017.65 1017.01 1016.73 1016.61 1016.13 1015.93 1016.08 1016.16 1016.15 1016.54 1017.37 1017.35 1016.82 1017.17 1018.11 1018.50 1018.39 1018.30
1014.85 1015.16 1015.37 1015.48 1015.57 1016.01 1016.76 1017.29 1017.77 1018.15 1018.64 1019.12 1019.44 1019.77 1020.24 1020.57 1020.84 1021.05 1021.16 1021.28 1021.17 1021.03 1020.81 1020.63 1020.25 1019.75 1019.05 1018.61 1018.23 1017.92 1017.57 1017.41 1017.54 1017.61 1017.69 1017.58 1017.61 1017.59 1017.95 1018.53 1018.51 1018.79 1018.79 1019.15
1016.51 1016.72 1016.99 1017.13 1017.42 1017.86 1018.34 1018.92 1019.34 1019.78 1020.24 1020.64 1020.68 1021.08 1021.57 1021.86 1022.16 1022.26 1022.32 1022.13 1021.92 1021.96 1022.19 1021.60 1021.01 1020.50 1020.12 1019.73 1019.34 1019.18 1018.95 1018.83 1018.84 1018.79 1018.91 1018.97 1019.14 1019.32 1019.60 1019.58 1019.68 1020.11 1020.14 1020.43
1018.09 1018.45 1018.63 1018.81 1019.12 1019.44 1019.95 1020.36 1020.66 1021.06 1021.57 1021.76 1021.95 1022.17 1022.51 1022.75 1022.78 1022.97 1023.16 1023.07 1023.20 1023.28 1023.18 1022.72 1021.95 1021.63 1021.20 1021.03 1020.69 1020.46 1020.30 1020.05 1019.98 1020.11 1020.06 1019.98 1020.24 1020.37 1020.49 1020.63 1020.83 1020.91 1021.05 1021.39
1019.54 1019.70 1019.94 1020.25 1020.69 1021.07 1021.33 1021.69 1021.97 1022.35 1022.72 1022.84 1022.85 1023.07 1023.40 1023.67 1023.69 1023.46 1023.39 1023.77 1024.20 1023.98 1023.85 1023.59 1023.28 1022.64 1022.33 1021.99 1021.78 1021.57 1021.43 1021.32 1021.23 1021.31 1021.29 1021.24 1021.52 1021.70 1021.75 1021.80 1022.04 1022.22 1022.50 1022.78
1020.46 1020.77 1021.17 1021.57 1021.86 1022.05 1022.45 1022.75 1022.98 1023.13 1023.33 1023.44 1023.42 1023.39 1023.52 1023.90 1024.09 1024.43 1024.78 1024.71 1024.96 1024.79 1024.73 1024.55 1024.31 1023.96 1023.46 1023.08 1022.90 1022.75 1022.66 1022.58 1022.42 1022.38 1022.45 1022.54 1022.57 1022.64 1022.84 1022.87 1022.99 1023.34 1023.61 1023.68
1021.27 1021.65 1021.99 1022.17 1022.48 1022.92 1023.24 1023.43 1023.61 1023.78 1023.97 1024.10 1024.13 1024.18 1024.23 1024.48 1024.59 1024.83 1025.33 1025.70 1025.74 1025.74 1025.54 1025.55 1025.24 1024.65 1024.13 1023.91 1023.81 1023.65 1023.52 1023.49 1023.56 1023.68 1023.54 1023.54 1023.59 1023.68 1023.83 1024.19 1024.20 1024.32 1024.61 1024.90
1021.65 1021.89 1022.17 1022.50 1022.65 1022.78 1023.07 1023.49 1023.79 1024.23 1024.40 1024.59 1024.77 1024.72 1024.53 1024.69 1025.16 1025.52 1025.98 1026.10 1026.08 1026.13 1026.22 1026.03 1025.67 1025.25 1024.98 1024.86 1024.80 1024.86 1024.99 1024.91 1024.58 1024.48 1024.43 1024.50 1024.53 1024.59 1024.76 1025.15 1025.41 1025.53 1025.65 1025.57
1022.03 1022.19 1022.32 1022.37 1022.53 1022.92 1023.28 1023.65 1023.85 1024.07 1024.33 1024.68 1024.97 1025.11 1025.33 1025.62 1025.82 1026.27 1026.23 1026.28 1026.31 1026.09 1026.32 1026.55 1026.37 1026.04 1025.91 1025.81 1025.78 1025.55 1025.38 1025.59 1025.67 1025.54 1025.39 1025.32 1025.42 1025.47 1025.64 1025.85 1025.95 1026.05 1026.04 1026.05
1022.25 1022.51 1022.79 1022.88 1022.89 1022.97 1023.17 1023.30 1023.60 1024.11 1024.31 1024.87 1025.33 1025.60 1025.83 1025.95 1026.06 1026.12 1026.39 1026.36 1026.52 1026.44 1026.53 1026.62 1026.73 1026.62 1026.50 1026.34 1026.20 1026.15 1026.00 1026.05 1026.34 1026.34 1026.16 1026.04 1026.11 1026.13 1026.28 1026.50 1026.58 1026.55 1026.55 1026.71
1022.76 1022.85 1023.10 1023.47 1023.90 1024.23 1024.35 1024.48 1024.30 1024.77 1025.20 1025.42 1025.63 1025.84 1026.00 1026.17 1026.39 1026.32 1026.50 1026.59 1026.62 1026.75 1026.73 1026.72 1026.72 1026.93 1026.98 1026.84 1026.62 1026.55 1026.45 1026.43 1026.95 1026.91 1026.64 1026.48 1026.52 1026.53 1026.67 1026.88 1027.00 1027.04 1027.00 1026.98
Wind_Speed
16 18 17 12 15 13 9 13 10 12 13 7 6 17 5 6 9 9 9 13 14 14 14 15 15 13 6 10 13 16 17 17 19 17 18 18 20 20 20 20 19 20 19 20
12 9 9 9 10 7 17 15 4 9 7 11 18 9 9 10 9 9 10 14 11 12 14 16 17 16 16 15 9 14 17 19 17 16 17 19 18 18 18 20 21 19 21 21
4 8 10 8 11 15 16 8 5 10 5 11 5 6 8 8 9 13 13 12 13 14 14 13 14 16 16 17 16 9 13 17 17 16 18 19 18 18 19 20 18 21 20 19
5 6 5 4 2 8 12 7 11 12 4 2 8 9 7 14 13 11 12 12 11 11 12 13 14 17 20 18 18 16 12 14 16 17 18 18 17 20 20 18 18 17 17 18
4 5 8 11 4 2 3 6 11 3 6 8 9 4 9 14 10 10 12 12 13 12 13 14 15 16 17 18 17 18 19 14 14 16 17 17 17 19 17 14 16 16 14 14
7 4 4 7 3 1 2 2 11 11 9 9 8 3 7 2 7 10 12 15 16 15 13 13 15 16 16 16 17 18 21 20 22 14 17 17 17 16 14 11 12 5 8 8
11 8 6 5 3 3 6 6 13 13 12 11 7 7 9 7 9 11 14 16 16 16 15 14 16 17 16 16 16 18 21 20 17 18 13 14 13 10 10 7 10 10 11 9
10 9 12 3 4 4 11 13 10 9 8 10 10 12 12 16 16 16 17 17 17 14 14 15 17 15 16 16 16 16 17 17 13 14 13 9 11 10 12 12 11 9 10 9
10 8 6 7 14 12 12 12 7 10 11 11 10 10 12 13 16 16 17 16 16 16 15 15 16 16 17 15 15 13 13 13 13 11 10 11 8 9 9 10 9 8 8 9
2 8 8 12 9 14 11 12 11 11 11 12 10 11 12 12 14 14 14 14 14 14 14 15 15 15 14 15 13 10 11 12 12 13 13 11 8 7 7 8 9 8 9 10
7 3 10 16 6 14 15 14 13 12 13 11 10 11 12 13 13 12 12 12 12 12 12 14 14 14 13 13 11 9 12 11 12 11 13 13 14 10 12 13 9 10 10 7
4 7 13 9 13 15 13 12 11 12 11 12 12 12 11 11 10 10 11 11 11 13 14 14 14 14 14 13 12 10 13 10 11 10 10 10 11 16 31 31 33 28 24 16
6 9 11 14 15 15 13 13 11 14 15 13 15 12 12 11 10 12 11 13 11 12 12 12 13 15 15 14 13 12 12 10 9 12 10 10 10 12 16 23 33 35 24 29
12 14 8 17 10 13 13 13 14 15 14 13 12 11 11 11 11 12 13 12 13 12 13 13 14 15 14 14 14 13 16 17 10 10 12 10 10 9 9 11 15 12 23 22
14 10 9 8 10 12 12 11 12 11 11 12 12 12 11 13 13 14 13 12 12 14 14 15 15 16 14 13 15 15 13 12 10 11 10 10 8 9 8 11 11 9 7 13
11 11 10 11 11 13 13 13 11 11 10 10 11 12 12 13 13 14 14 14 15 14 14 14 16 14 13 13 13 11 13 18 12 8 9 9 11 8 8 12 10 9 8 7
10 11 10 10 9 12 12 10 10 10 10 11 12 11 12 13 13 14 12 12 12 13 13 14 14 14 13 13 12 9 9 10 12 9 9 8 7 8 8 9 8 8 9 10
10 9 9 10 10 10 11 11 11 12 12 13 12 12 11 11 11 11 11 10 10 13 14 13 12 12 13 11 11 8 7 9 9 9 9 9 9 9 8 8 8 8 9 11
11 11 12 13 11 11 11 11 12 12 10 10 11 11 10 10 10 10 10 11 13 13 13 12 14 12 13 14 10 8 9 10 9 8 9 10 9 9 8 8 9 8 8 8
11 12 14 15 14 12 12 10 11 11 10 10 10 11 11 11 7 9 10 13 11 8 9 13 11 11 11 12 12 8 9 9 9 8 8 9 8 8 8 10 8 8 8 7
12 13 13 13 12 11 11 9 9 10 9 8 9 9 9 8 11 10 8 8 10 10 10 12 11 8 8 9 9 9 9 8 9 8 8 8 7 8 8 8 8 7 7 6
9 10 10 10 10 11 10 9 9 9 9 9 8 5 6 7 9 10 11 9 7 11 8 8 8 11 8 9 7 8 9 9 8 8 8 8 7 7 8 7 7 7 7 6
9 10 9 9 10 10 9 9 9 8 8 8 8 7 8 7 7 7 6 9 7 9 7 7 10 11 8 8 8 8 9 8 7 7 7 7 7 7 6 6 6 6 6 5
9 9 9 8 7 8 10 9 9 8 6 8 7 7 7 5 6 6 6 5 6 7 6 6 8 10 9 7 7 6 7 8 7 7 6 6 5 5 5 4 4 6 4 3
7 7 6 6 8 6 7 6 7 6 6 7 7 7 8 7 5 4 5 4 6 7 6 6 9 6 6 5 5 6 5 5 4 6 5 5 5 4 4 5 4 3 3 4
7 6 6 8 6 4 3 3 4 5 3 5 5 4 5 5 4 4 3 3 4 5 4 4 4 6 6 6 5 5 5 5 5 6 5 4 4 4 4 4 3 3 3 3
5 3 4 5 5 5 6 6 5 5 6 4 4 4 4 3 3 3 4 4 4 4 4 4 3 4 3 4 4 5 4 4 3 2 3 3 3 3 3 3 3 3 2 2
Wind_Direction
296 303 209 217 251 253 219 228 239 235 246 266 295 287 245 52 55 39 22 29 15 1 351 352 353 355 318 212 190 197 209 217 220 208 211 211 213 214 212 215 216 217 218 219
304 285 279 274 206 237 284 211 227 186 309 236 232 247 44 34 21 14 27 32 9 358 5 356 347 343 339 337 223 193 203 218 220 217 211 217 217 214 213 215 217 217 219 219
273 315 302 267 253 189 219 262 231 246 256 28 28 40 42 17 13 42 24 18 18 9 8 353 343 332 330 327 322 285 209 215 220 219 217 217 216 216 218 219 216 219 223 222
288 312 228 235 33 257 246 223 241 258 330 150 39 28 13 53 52 33 17 27 18 17 359 355 354 356 342 335 325 312 282 228 219 220 225 222 212 216 220 218 217 218 221 221
253 233 309 303 223 283 207 234 254 162 133 98 72 7 58 43 41 30 20 19 22 13 5 3 8 352 336 326 325 324 323 301 241 222 222 227 221 219 222 219 219 218 221 221
225 235 261 226 138 148 330 119 82 85 64 49 49 69 86 326 31 19 25 26 12 9 8 15 4 348 336 334 326 343 341 332 323 268 218 219 220 221 215 215 221 184 78 53
226 243 252 276 167 139 203 77 41 44 46 42 24 351 327 10 23 21 34 25 15 4 11 13 2 348 342 336 343 330 326 325 344 343 299 214 212 206 194 115 106 96 91 74
225 244 249 245 268 176 91 63 50 24 54 49 15 7 6 18 31 31 22 16 12 5 2 9 357 350 344 340 331 329 326 327 342 351 353 14 79 82 89 98 94 85 82 61
189 213 298 86 99 85 89 102 55 37 31 24 22 6 9 11 31 27 21 14 2 4 358 4 355 357 343 337 331 337 354 354 354 2 18 7 53 83 93 99 104 104 99 92
320 256 201 111 110 93 84 75 60 42 35 31 15 10 13 23 29 23 20 11 4 3 5 359 354 357 347 339 340 3 25 15 14 13 10 24 32 43 71 95 101 102 107 99
227 88 46 47 19 72 68 59 54 52 50 39 31 31 29 38 30 21 20 12 14 11 11 6 3 360 357 353 5 23 48 34 28 29 32 42 43 40 65 46 64 100 92 95
75 44 106 106 61 54 66 60 47 57 53 48 43 51 52 54 36 30 32 26 24 21 18 13 9 7 5 11 20 26 56 46 47 40 44 34 57 73 63 76 74 69 79 88
43 8 53 81 62 40 46 41 42 57 51 43 46 45 56 63 44 48 41 39 32 27 20 17 20 18 13 14 30 34 57 51 61 73 52 57 42 59 77 67 72 75 58 77
27 7 59 37 38 31 31 25 53 60 60 52 44 49 57 63 60 54 49 43 40 30 27 22 26 27 17 22 34 26 60 47 45 41 71 64 50 48 54 61 75 52 73 73
13 21 57 34 38 36 35 36 59 55 54 55 55 57 62 67 62 56 45 43 44 36 30 25 26 27 17 30 38 34 48 53 38 57 54 66 82 62 73 72 70 81 70 65
339 39 38 43 39 34 30 28 52 52 56 64 71 74 77 78 74 66 56 47 46 37 27 24 25 13 17 31 34 35 45 46 53 56 61 60 55 59 61 65 61 52 63 69
9 24 16 24 39 50 44 45 54 65 66 67 65 67 72 72 66 60 57 50 46 44 35 29 22 11 20 27 36 37 42 45 47 51 54 69 84 79 72 72 68 69 62 60
63 57 50 41 55 73 70 65 65 68 67 68 66 65 60 57 56 51 49 45 47 40 28 28 27 24 27 32 33 37 50 55 55 55 53 55 58 60 66 79 78 74 68 59
57 67 62 64 72 79 81 78 74 73 74 78 79 77 77 72 65 57 50 47 44 36 15 6 26 29 29 26 40 44 44 49 46 58 61 59 54 48 59 62 64 63 66 65
71 72 72 71 66 75 78 68 70 67 61 66 67 64 53 37 62 81 65 55 46 42 33 15 20 30 27 31 29 45 43 47 58 59 52 51 51 52 58 52 58 61 62 61
77 75 75 75 74 71 71 73 78 78 77 78 85 85 82 69 50 29 61 58 34 32 34 36 27 21 27 31 37 36 40 43 48 48 51 57 58 52 51 55 53 50 51 49
82 81 81 85 83 80 75 77 71 69 64 61 55 67 95 98 100 73 42 42 38 27 36 30 21 4 12 40 43 43 44 42 41 42 40 40 45 49 43 43 45 44 40 37
96 97 95 88 89 90 85 76 72 69 66 55 54 72 77 66 48 52 53 37 49 28 45 28 4 5 24 34 34 34 38 42 48 40 37 43 37 40 52 27 26 41 48 8
99 99 107 123 126 102 92 98 97 104 108 85 54 33 34 84 74 74 71 42 56 94 56 15 360 1 32 28 34 52 41 19 19 35 40 38 34 34 45 48 23 34 19 9
100 111 120 121 100 98 111 131 131 119 94 74 63 67 70 59 65 55 38 71 31 24 80 33 1 8 36 38 35 12 39 56 20 22 10 30 29 27 33 31 27 20 337 23
81 77 71 46 44 57 72 50 66 54 82 110 83 68 60 44 50 66 95 74 65 44 38 73 51 10 20 10 24 26 7 53 29 14 349 22 18 15 37 29 356 6 21 28
98 103 118 93 70 43 21 24 45 59 46 35 78 52 67 76 83 52 49 30 35 27 27 21 51 75 9 329 19 5 9 25 75 24 324 8 5 10 37 26 7 357 336 346